Content
SEND FEEDBACK

Daily
Averages
Monthly
Summary
South Korea

MASAN, SOUTH KOREA


Home > Asia > South Korea
Elevation: 20 feet     Latitude: 35 11N     Longitude: 128 34E

WEATHER
 
SELECT A DAY
Number of Records: 175,522;   Date Range: 7/1/96 - 9/30/14
 
SHARE

PRINT THIS DATA

[ ← Previous Day ]
WEATHER ALMANAC - JANUARY 30, 2013
[ Next Day → ]
[ °C ]   °F
Weather ElementAverageHighLow
Temperature41.2 °F53.6 °F (2:00 pm)28.4 °F (6:00 am)
Dewpoint29.5 °F33.8 °F (4:00 pm)23 °F (5:00 am)
Humidity65 %86 % (6:00 am)38 % (2:00 pm)
Barometer30.41 in30.48 in (8:00 pm)30.37 in (3:00 am)
Wind Speed4.2 mph6.9 mph (4:00 pm)
Weather ElementAverage
Visibility5.4 mi
Wind DirectionSSE (152.3 °)

Weather ElementTotal
Precipitation---
Heating Degree Days24 (Base 65)
Averaged from 22 records on January 30, 2013
WEATHER CONDITIONS BREAKOUT
WIND DIRECTION BREAKOUT
WEATHER BY HOUR - JANUARY 30, 2013
[ °C ]   °F
Local TimeTemperatureDewpointHumidityBarometerVisibilityWind DirectionWind SpeedGust SpeedPrecipitationEventsConditions
3:00 AM32.0 °F24.8 °F75 %30.37 in6.2 miNNE (20°)4.6 mphMostly Cloudy
4:00 AM30.2 °F24.8 °F80 %30.38 in6.2 miNE (40°)4.6 mphScattered Clouds
5:00 AM30.2 °F23.0 °F75 %30.39 inENE (60°)5.8 mphClear
6:00 AM28.4 °F24.8 °F86 %30.39 inNNE (30°)5.8 mphClear
7:00 AM28.4 °F24.8 °F86 %30.39 inNNE (20°)4.6 mphClear
8:00 AM30.2 °F24.8 °F80 %30.42 inNE (40°)4.6 mphClear
9:00 AM33.8 °F28.4 °F81 %30.42 inNNE (30°)4.6 mphClear
10:00 AM37.4 °F28.4 °F70 %30.45 inNorth (350°)2.3 mphClear
11:00 AM42.8 °F26.6 °F53 %30.45 inNNE (30°)2.3 mphClear
12:00 PM46.4 °F30.2 °F53 %30.42 inNorth (360°)2.3 mphClear
1:00 PM51.8 °F28.4 °F41 %30.39 inWNW (300°)2.3 mphClear
2:00 PM53.6 °F28.4 °F38 %30.39 in6.2 miSW (220°)3.5 mphPartly Cloudy
3:00 PM51.8 °F32.0 °F47 %30.39 in6.2 miSSW (210°)5.8 mphPartly Cloudy
4:00 PM51.8 °F33.8 °F50 %30.39 in6.2 miSSW (200°)6.9 mphPartly Cloudy
5:00 PM51.8 °F32.0 °F47 %30.39 inSouth (180°)3.5 mphClear
5:22 PM50.0 °F33.8 °F54 %30.39 in5.6 miSE (130°)6.9 mph
6:00 PM48.2 °F33.8 °F58 %30.39 in5.6 miSE (140°)5.8 mph
7:00 PM42.8 °F33.8 °F70 %30.45 in5.0 miWNW (300°)1.2 mph
8:00 PM42.8 °F33.8 °F70 %30.48 in5.0 miNorth (10°)4.6 mph
9:00 PM42.8 °F33.8 °F70 %30.45 in5.0 miNorth (10°)3.5 mph
10:00 PM39.2 °F32.0 °F75 %30.45 in3.7 miNW (320°)2.3 mph
11:00 PM41.0 °F32.0 °F70 %30.45 in3.7 miNorth (350°)3.5 mph
Hourly data recorded from RKPK, located miles away from Masan, South Korea







STORIES FROM OUR PARTNERS